* Astronomy

Members Login
Username 
 
Password 
    Remember Me  
Post Info TOPIC: Asteroid 2010 NW117


L

Posts: 131433
Date:
Asteroid 2010 NW117
Permalink  
 


Orbital elements:
2010 NW117 Earth MOID = 0.1130 AU
Epoch 2010 July 23.0 TT = JDT 2455400.5 MPC
M 325.43491 (2000.0) P Q
n 0.27279698 Peri. 148.43456 +0.75022650 -0.65874050
a 2.3545596 Node 252.87887 +0.59358486 +0.70885090
e 0.5332217 Incl. 3.40463 +0.29123394 +0.25217328
P 3.61 H 18.3 G 0.15 U 6

MPEC 2010 - P54


__________________
Page 1 of 1  sorted by
 
Quick Reply

Please log in to post quick replies.



Create your own FREE Forum
Report Abuse
Powered by ActiveBoard